Weather History for Aberdeen / Amory, MS

Change the Weather History Date:

Saturday, November 24, 2012

  Actual Average (KCBM) Record (KCBM)
Temperature  
Mean Temperature 40 °F -  
Max Temperature 53 °F 61 °F 75 °F (2010)
Min Temperature 26 °F 40 °F 26 °F (2012)
Degree Days  
Heating Degree Days 26    
Moisture  
Dew Point 24 °F    
Average Humidity 57    
Maximum Humidity 61    
Minimum Humidity 51    
Precipitation  
Precipitation 0.00 in - - ()
Sea Level Pressure  
Sea Level Pressure 30.27 in    
Wind  
Wind Speed 5 mph ()    
Max Wind Speed 14 mph    
Max Gust Speed 32 mph    
Visibility 8.9 miles    
Events      
Averages and records for this station are not official NWS values.
T = Trace of Precipitation, MM = Missing Value Source: Averaged Metar Reports

Daily Weather History Graph

Daily Weather History Graph

Search for Another Location

Airport:

Trip Planner

Search our weather history database for the weather conditions in past years. The results will help you decide how hot, cold, wet, or windy it might be!

Date:

Astronomy

Nov. 24, 2012 Rise Set
Actual Time 6:35 AM CST 4:46 PM CST
Civil Twilight 6:08 AM CST 5:13 PM CST
Nautical Twilight 5:37 AM CST 5:43 PM CST
Astronomical Twilight 5:07 AM CST 6:13 PM CST
Moon 2:24 PM CST (11/24) 2:59 AM CST (11/24)
Length of Visible Light 11h 05m
Length of Day
10h 11m
Waxing Gibbous, 87% of the Moon is Illuminated
Nov 24
Waxing Gibbous
Nov 28
Full
Dec 6
Last Quarter
Dec 13
New
Dec 19
First Quarter

Hourly Weather History & Observations

Time (CST) Temp. Windchill Dew Point Humidity Pressure Visibility Wind Dir Wind Speed Gust Speed Precip Events Conditions
12:15 AM 39.2 °F 35.9 °F 26.6 °F 61% 30.28 in 10.0 mi North 4.6 mph - N/A   Clear
12:35 AM 39.2 °F - 26.6 °F 61% 30.28 in 10.0 mi North - - N/A   Clear
12:55 AM 37.4 °F 34.9 °F 24.8 °F 60% 30.28 in 10.0 mi North 3.5 mph - N/A   Clear
1:15 AM 37.4 °F - 24.8 °F 60% 30.28 in 10.0 mi North - - N/A   Clear
1:35 AM 37.4 °F 33.8 °F 24.8 °F 60% 30.28 in 10.0 mi North 4.6 mph - N/A   Clear
1:55 AM 37.4 °F 34.9 °F 23.0 °F 56% 30.28 in 10.0 mi North 3.5 mph - N/A   Clear
2:15 AM 35.6 °F 29.2 °F 23.0 °F 60% 30.28 in 10.0 mi NNW 8.1 mph - N/A   Clear
2:35 AM 35.6 °F 30.7 °F 23.0 °F 60% 30.29 in 10.0 mi North 5.8 mph - N/A   Clear
2:55 AM 35.6 °F 30.7 °F 23.0 °F 60% 30.29 in 10.0 mi North 5.8 mph - N/A   Clear
3:15 AM 35.6 °F 32.8 °F 23.0 °F 60% 30.29 in 10.0 mi NNW 3.5 mph - N/A   Clear
3:35 AM 33.8 °F - 21.2 °F 60% 30.29 in 10.0 mi North - - N/A   Clear
3:55 AM 33.8 °F - 21.2 °F 60% 30.29 in 10.0 mi North - - N/A   Clear
4:15 AM 33.8 °F - 21.2 °F 60% 30.29 in 10.0 mi North - - N/A   Clear
4:35 AM 33.8 °F - 21.2 °F 60% 30.30 in 10.0 mi North - - N/A   Clear
4:55 AM 33.8 °F 27.7 °F 21.2 °F 60% 30.30 in 10.0 mi North 6.9 mph - N/A   Clear
5:15 AM 33.8 °F 27.7 °F 21.2 °F 60% 30.30 in 10.0 mi NNW 6.9 mph - N/A   Clear
5:35 AM 32.0 °F 28.7 °F 19.4 °F 60% 30.31 in 9.0 mi North 3.5 mph - N/A   Clear
5:55 AM 32.0 °F 26.4 °F 19.4 °F 60% 30.31 in 8.0 mi North 5.8 mph - N/A   Clear
6:15 AM 32.0 °F 26.4 °F 19.4 °F 60% 30.32 in 9.0 mi North 5.8 mph - N/A   Clear
6:35 AM 32.0 °F 26.4 °F 17.6 °F 55% 30.33 in 9.0 mi North 5.8 mph - N/A   Clear
6:55 AM 32.0 °F - 17.6 °F 55% 30.34 in 8.0 mi Calm Calm - N/A   Clear
7:15 AM 33.8 °F 27.0 °F 19.4 °F 56% 30.34 in 8.0 mi North 8.1 mph - N/A   Clear
7:35 AM 35.6 °F 29.9 °F 21.2 °F 56% 30.35 in 9.0 mi North 6.9 mph - N/A   Clear
7:55 AM 35.6 °F 29.2 °F 23.0 °F 60% 30.35 in 9.0 mi North 8.1 mph - N/A   Clear
8:15 AM 37.4 °F 31.4 °F 24.8 °F 60% 30.36 in 9.0 mi East 8.1 mph 32.2 mph N/A   Clear
8:35 AM 39.2 °F 32.5 °F 26.6 °F 61% 30.37 in 9.0 mi ENE 10.4 mph - N/A   Clear
8:55 AM 39.2 °F 32.0 °F 26.6 °F 61% 30.37 in 9.0 mi ESE 11.5 mph 16.1 mph N/A   Clear
9:15 AM 41.0 °F 33.5 °F 28.4 °F 61% 30.36 in 9.0 mi NNW 13.8 mph - N/A   Clear
9:35 AM 42.8 °F 37.5 °F 28.4 °F 57% 30.36 in 8.0 mi West 9.2 mph - N/A   Clear
9:55 AM 44.6 °F 40.2 °F 30.2 °F 57% 30.36 in 9.0 mi NNE 8.1 mph - N/A   Clear
10:15 AM 44.6 °F 40.2 °F 30.2 °F 57% 30.36 in 9.0 mi North 8.1 mph - N/A   Clear
10:35 AM 46.4 °F 42.9 °F 32.0 °F 57% 30.35 in 9.0 mi NNE 6.9 mph - N/A   Clear
10:55 AM 46.4 °F 42.4 °F 32.0 °F 57% 30.34 in 9.0 mi NNW 8.1 mph - N/A   Clear
11:15 AM 46.4 °F 42.4 °F 32.0 °F 57% 30.33 in 8.0 mi North 8.1 mph - N/A   Clear
11:35 AM 48.2 °F - 32.0 °F 54% 30.32 in 9.0 mi NNW 6.9 mph - N/A   Clear
11:55 AM 48.2 °F - 33.8 °F 58% 30.30 in 9.0 mi North 9.2 mph - N/A   Clear
12:15 PM 50.0 °F - 33.8 °F 54% 30.29 in 9.0 mi North 8.1 mph - N/A   Clear
12:35 PM 51.8 °F - 35.6 °F 54% 30.28 in 9.0 mi North 5.8 mph - N/A   Clear
12:55 PM 51.8 °F - 35.6 °F 54% 30.27 in 8.0 mi Calm Calm - N/A   Clear
1:15 PM 51.8 °F - 35.6 °F 54% 30.26 in 9.0 mi West 5.8 mph - N/A   Clear
1:35 PM 51.8 °F - 35.6 °F 54% 30.25 in 9.0 mi SE 4.6 mph - N/A   Clear
1:55 PM 53.6 °F - 37.4 °F 54% 30.25 in 8.0 mi East 5.8 mph - N/A   Clear
2:15 PM 53.6 °F - 37.4 °F 54% 30.25 in 8.0 mi NNE 6.9 mph - N/A   Clear
2:35 PM 51.8 °F - 35.6 °F 54% 30.24 in 9.0 mi NE 6.9 mph - N/A   Clear
2:55 PM 51.8 °F - 35.6 °F 54% 30.24 in 8.0 mi North 6.9 mph - N/A   Clear
3:15 PM 51.8 °F - 35.6 °F 54% 30.24 in 8.0 mi NE 4.6 mph - N/A   Clear
3:35 PM 51.8 °F - 35.6 °F 54% 30.24 in 8.0 mi North 5.8 mph - N/A   Clear
3:55 PM 50.0 °F - 33.8 °F 54% 30.24 in 9.0 mi North 3.5 mph - N/A   Clear
4:15 PM 48.2 °F - 33.8 °F 58% 30.23 in 9.0 mi Calm Calm - N/A   Clear
4:35 PM 46.4 °F - 32.0 °F 57% 30.24 in 9.0 mi Calm Calm - N/A   Clear
4:55 PM 42.8 °F - 28.4 °F 57% 30.23 in 9.0 mi Calm Calm - N/A   Clear
5:15 PM 37.4 °F - 24.8 °F 60% 30.23 in 10.0 mi North - - N/A   Clear
5:35 PM 35.6 °F - 23.0 °F 60% 30.23 in 10.0 mi Calm Calm - N/A   Clear
5:55 PM 33.8 °F - 21.2 °F 60% 30.23 in 10.0 mi Calm Calm - N/A   Clear
6:15 PM 32.0 °F - 19.4 °F 60% 30.23 in 10.0 mi Calm Calm - N/A   Clear
6:35 PM 32.0 °F - 19.4 °F 60% 30.23 in 8.0 mi North - - N/A   Clear
6:55 PM 32.0 °F - 17.6 °F 55% 30.23 in 8.0 mi Calm Calm - N/A   Clear
7:15 PM 32.0 °F - 17.6 °F 55% 30.23 in 7.0 mi North - - N/A   Clear
7:35 PM 30.2 °F - 17.6 °F 60% 30.23 in 5.0 mi North - - N/A   Haze
7:55 PM 30.2 °F - 17.6 °F 60% 30.22 in 9.0 mi North - - N/A   Clear
8:15 PM 30.2 °F - 15.8 °F 55% 30.22 in 9.0 mi Calm Calm - N/A   Clear
8:35 PM 30.2 °F - 14.0 °F 51% 30.22 in 8.0 mi North - - N/A   Clear
8:55 PM 28.4 °F - 14.0 °F 55% 30.21 in 8.0 mi Calm Calm - N/A   Clear
9:15 PM 28.4 °F - 14.0 °F 55% 30.21 in 8.0 mi Calm Calm - N/A   Clear
9:35 PM 28.4 °F - 14.0 °F 55% 30.22 in 8.0 mi Calm Calm - N/A   Clear
9:55 PM 28.4 °F - 14.0 °F 55% 30.21 in 8.0 mi North - - N/A   Clear
10:15 PM 28.4 °F - 14.0 °F 55% 30.21 in 8.0 mi Calm Calm - N/A   Clear
10:35 PM 28.4 °F - 14.0 °F 55% 30.21 in 9.0 mi Calm Calm - N/A   Clear
10:55 PM 28.4 °F - 14.0 °F 55% 30.22 in 9.0 mi Calm Calm - N/A   Clear
11:15 PM 28.4 °F - 14.0 °F 55% 30.21 in 9.0 mi North - - N/A   Clear
11:35 PM 26.6 °F - 12.2 °F 55% 30.21 in 8.0 mi Calm Calm - N/A   Clear
11:55 PM 26.6 °F - 14.0 °F 59% 30.20 in 9.0 mi Calm Calm - N/A   Clear